Orbital Elements at Epoch 2459200.5 (2020-Dec-17.0) TDB
Reference: JPL 31 (heliocentric ecliptic J2000)
Element | Value | Uncertainty (1-sigma) | Units |
e | .09514755928035251 | 3.3894e-08 | |
a | 2.755669560611411 | 1.1064e-08 | au |
q | 2.493474327736073 | 9.3301e-08 | au |
i | 8.180730354316125 | 4.3543e-06 | deg |
node | 92.337665062214 | 2.4632e-05 | deg |
peri | 285.3524099196803 | 3.3446e-05 | deg |
M | 40.51202664301152 | 2.1619e-05 | deg |
tp | 2459012.472832298254 (2020-Jun-11.97283230) | 0.00010039 | TDB |
period | 1670.856434043773 4.57 | 1.0063e-05 2.755e-08 | d yr |
n | .2154583677358414 | 1.2976e-09 | deg/d |
Q | 3.017864793486748 | 1.2116e-08 | au |
|
| | Orbit Determination Parameters
Additional Information
|